Regional Weather Roundup
Issued by NWS

Home | Current Version | Previous Version | Text Only | Print | Product List | Glossary Off
Versions: 1 2 3 4 5 6 7 8 9 10 11 12 13 14 15 16 17 18 19 20 21 22 23 24 25 26 27

000
ASUS45 KPSR 191310
RWRAZ

ARIZONA HOURLY REGIONAL WEATHER ROUNDUP
NATIONAL WEATHER SERVICE PHOENIX AZ
600 AM MST SUN FEB 19 2017

NOTE: FAIR INDICATES FEW OR NO CLOUDS BELOW 12,000 FEET WITH NO
SIGNIFICANT WEATHER AND/OR OBSTRUCTIONS TO VISIBILITY.

AZZ001>003-036-191400-
NORTHWEST ARIZONA

CITY           SKY/WX    TMP DP  RH WIND       PRES   REMARKS
BULLHEAD CITY  CLOUDY    54  50  87 SW7       29.78R
KINGMAN        PTCLDY    42  39  89 E5        29.76R
$$

AZZ004>008-015-016-018-191400-
NORTH CENTRAL ARIZONA

CITY           SKY/WX    TMP DP  RH WIND       PRES   REMARKS
GRAND CANYON   LGT SNOW  32  32 100 SW9       29.78R FOG     WCI  24
WILLIAMS       CLOUDY    32  28  86 SE12      29.77R WCI  23
PRESCOTT       CLOUDY    36  36 100 SE6       29.80R WCI  31
FLAGSTAFF      LGT SNOW  29  28  96 W6        29.79R FOG     WCI  23
PAYSON         LGT RAIN  34  32  93 CALM      29.85R
PAGE           LGT RAIN  44  37  76 SE5       29.71R
$$

AZZ009>014-017-191400-
NORTHEAST ARIZONA

CITY           SKY/WX    TMP DP  RH WIND       PRES   REMARKS
WINSLOW        MOCLDY    37  35  92 SE7       29.80R WCI  32
SAINT JOHNS    CLEAR     26  25  96 W3        29.81R
WINDOW ROCK    CLOUDY    35  29  78 SW10      29.81S WCI  27
SHOW LOW       LGT SNOW  32  28  86 SW6       29.83R WCI  26
$$

AZZ023-191400-
GREATER PHOENIX AREA

CITY           SKY/WX    TMP DP  RH WIND       PRES   REMARKS
PHOENIX        LGT RAIN  51  49  92 SE8       29.82R
BUCKEYE        CLOUDY    50  50 100 E7        29.82R
LUKE AFB       LGT RAIN  50 N/A N/A SE7       29.81R
DEER VALLEY    CLOUDY    49  49 100 SE8       29.82R
SCOTTSDALE     LGT RAIN  50  47  89 E5        29.85R
MESA-GATEWAY   CLOUDY    50  45  81 S13       29.85R
CHANDLER       LGT RAIN  50  48  93 SE9       29.84
$$

AZZ027-028-191400-
SOUTHWEST MARICOPA COUNTY AND PINAL COUNTY

CITY           SKY/WX    TMP DP  RH WIND       PRES   REMARKS
CASA GRANDE    NOT AVBL
GILA BEND      CLOUDY    52  50  93 S7        29.82R
$$

AZZ503-504-507>509-191400-
SOUTHEAST ARIZONA

CITY           SKY/WX    TMP DP  RH WIND       PRES   REMARKS
TUCSON         CLOUDY    49  39  68 E6        29.87R
DAVIS-MONTHAN  MOCLDY    48  38  69 E9        29.86R
RYAN FIELD     CLOUDY    50  41  71 SE8       29.87
NOGALES        CLOUDY    41  37  86 S7        29.87R
SIERRA VISTA   PTCLDY    35  34  97 W3        29.88R
DOUGLAS        CLOUDY    38  36  92 SE5       29.90R WCI  34
SAFFORD        CLOUDY    46  36  68 SE10      29.85R
$$

AZZ020-021-025-026-031-191400-
SOUTHWEST ARIZONA

CITY           SKY/WX    TMP DP  RH WIND       PRES   REMARKS
YUMA           CLOUDY    55  52  89 CALM      29.79R
$$

CAZ031-033-041-043-047-048-061-191400-
SOUTHERN CALIFORNIA

CITY           SKY/WX    TMP DP  RH WIND       PRES   REMARKS
DOWNTOWN L.A.  CLOUDY    55  51  86 E3        29.81R
L.A. AIRPORT   MOCLDY    52  51  97 NE7       29.81R
SAN DIEGO      CLOUDY    56  49  77 VRB5      29.87R
BURBANK        CLOUDY    50  47  89 N3        29.81R
ONTARIO        CLOUDY    51  49  92 W5        29.82R
RIVERSIDE      CLOUDY    52  51  97 CALM      29.81R
PALM SPRINGS   MOCLDY    54  54 100 SE6       29.79S
EL CENTRO NAS  FOG       45  43  93 CALM      29.81R VSB 1/2
IMPERIAL       FOG       48  47  96 W5        29.79R VSB 1/2
BLYTHE         CLOUDY    53  53 100 S7        29.77R
NEEDLES        LGT RAIN  55  51  86 SE3       29.77R
$$

NVZ020-UTZ003-191400-
SOUTHERN NEVADA-UTAH

CITY           SKY/WX    TMP DP  RH WIND       PRES   REMARKS
LAS VEGAS      PTCLDY    49  44  83 S7        29.70R
SALT LAKE CITY LGT RAIN  48  39  71 S8        29.63R
$$

NMZ009-TXZ055-191400-
NEW MEXICO-WEST TEXAS

CITY           SKY/WX    TMP DP  RH WIND       PRES   REMARKS
ALBUQUERQUE    LGT RAIN  41  38  89 S12       29.85F
EL PASO        MOCLDY    47  30  51 W9        29.86R
$$


........................KEY........................
SKY/WX - SKY CONDITION/WEATHER
TMP    - TEMPERATURE IN FAHRENHEIT
DP     - DEW POINT IN FAHRENHEIT
RH     - RELATIVE HUMIDITY IN PERCENT
WIND   - DIRECTION AND SPEED IN MILES PER HOUR (MPH)
VRB    - VARIABLE WIND DIRECTION
PRES   - MEAN SEA LEVEL PRESSURE IN INCHES OF MERCURY
         F - FALLING PRESSURE   R - RISING PRESSURE
         S - STEADY PRESSURE
VSB    - VISIBILITY IN MILES
HX     - HEAT INDEX IN FAHRENHEIT
WCI    - WIND CHILL INDEX IN FAHRENHEIT
TC     - TEMPERATURE IN CELSIUS WHICH IS ALSO KNOWN AS
         TEMPERATURE IN CENTIGRADE
AFB    - AIR FORCE BASE
         LUKE AFB IS LUKE AIR FORCE BASE
         DAVIS-MONTHAN IS DAVIS-MONTHAN AIR FORCE BASE
NAS    - NAVAL AIR STATION
         EL CENTRO NAS IS EL CENTRO NAVAL AIR STATION
N/A    - NOT AVAILABLE





USA.gov is the U.S. government's official web portal to all federal, state and local government web resources and services.